Weather History for Haines, AK

Change the Weather History Date:

Tuesday, July 22, 2014

  Actual Average Record
Temperature  
Mean Temperature 63 °F -  
Max Temperature 72 °F 61 °F 82 °F (1990)
Min Temperature 55 °F 51 °F 45 °F (1976)
Degree Days  
Heating Degree Days 2    
Growing Degree Days 13 (Base 50)    
Moisture  
Dew Point 50 °F    
Average Humidity 63    
Maximum Humidity 77    
Minimum Humidity 47    
Precipitation  
Precipitation 0.00 in - - ()
Sea Level Pressure  
Sea Level Pressure 29.98 in    
Wind  
Wind Speed 12 mph (NE)    
Max Wind Speed 15 mph    
Max Gust Speed 24 mph    
Visibility 10 miles    
Events      
Averages and records for this station are not official NWS values.
T = Trace of Precipitation, MM = Missing Value Source: NWS Daily Summary

Daily Weather History Graph

Daily Weather History Graph

Search for Another Location

Airport:

Trip Planner

Search our weather history database for the weather conditions in past years. The results will help you decide how hot, cold, wet, or windy it might be!

Date:

Astronomy

Jul. 22, 2014 Rise Set
Actual Time 4:26 AM AKDT 9:49 PM AKDT
Civil Twilight 3:21 AM AKDT 10:53 PM AKDT
Nautical Twilight 1:40 AM AKDT 12:36 AM AKDT
Astronomical Twilight Sun does not rise Sun does not rise
Moon 1:18 AM AKDT (7/22) 6:24 PM AKDT (7/22)
Length of Visible Light 19h 32m
Length of Day
17h 22m
Waning Crescent, 15% of the Moon is Illuminated
Jul 22
Waning Crescent
Jul 26
New
Aug 3
First Quarter
Aug 10
Full
Aug 17
Last Quarter

Hourly Weather History & Observations

Time (AKDT) Temp. Dew Point Humidity Pressure Visibility Wind Dir Wind Speed Gust Speed Precip Events Conditions
12:54 AM 64.0 °F 48.0 °F 56% 29.98 in 10.0 mi NW 13.8 mph 24.2 mph N/A   Clear
1:54 AM 60.1 °F 48.9 °F 67% 29.99 in 10.0 mi WNW 15.0 mph - N/A   Clear
2:54 AM 60.1 °F 48.0 °F 64% 29.99 in 10.0 mi WNW 13.8 mph 21.9 mph N/A   Clear
3:54 AM 57.9 °F 48.0 °F 70% 29.99 in 10.0 mi WNW 12.7 mph - N/A   Clear
4:54 AM 55.9 °F 48.0 °F 75% 29.99 in 10.0 mi WNW 13.8 mph - N/A   Clear
5:54 AM 55.0 °F 48.0 °F 77% 30.00 in 10.0 mi WNW 15.0 mph - N/A   Clear
6:54 AM 55.9 °F 48.0 °F 75% 29.99 in 10.0 mi WNW 13.8 mph - N/A   Clear
7:54 AM 57.0 °F 48.0 °F 72% 29.99 in 10.0 mi WNW 15.0 mph - N/A   Clear
8:54 AM 62.1 °F 50.0 °F 65% 29.99 in 10.0 mi WNW 8.1 mph - N/A   Clear
9:54 AM 66.9 °F 50.0 °F 54% 29.99 in 10.0 mi WNW 6.9 mph - N/A   Clear
10:54 AM 62.1 °F 51.1 °F 67% 29.99 in 10.0 mi ESE 5.8 mph - N/A   Clear
11:54 AM 63.0 °F 51.1 °F 65% 29.98 in 10.0 mi SE 10.4 mph - N/A   Clear
12:54 PM 66.0 °F 51.1 °F 59% 29.98 in 10.0 mi ESE 6.9 mph - N/A   Clear
1:54 PM 66.9 °F 50.0 °F 54% 29.98 in 10.0 mi ESE 12.7 mph - N/A   Clear
2:54 PM 69.1 °F 52.0 °F 54% 29.97 in 10.0 mi Variable 6.9 mph - N/A   Clear
3:54 PM 69.1 °F 54.0 °F 58% 29.95 in 10.0 mi SE 9.2 mph - N/A   Clear
4:54 PM 71.1 °F 50.0 °F 47% 29.94 in 10.0 mi East 9.2 mph 21.9 mph N/A   Clear
6:54 PM 70.0 °F 51.1 °F 51% 29.95 in 10.0 mi East 10.4 mph 18.4 mph N/A   Clear
7:54 PM 66.9 °F 52.0 °F 59% 29.95 in 10.0 mi ENE 10.4 mph 21.9 mph N/A   Clear
8:54 PM 64.9 °F 52.0 °F 63% 29.96 in 10.0 mi ENE 13.8 mph 24.2 mph N/A   Clear
9:54 PM 63.0 °F 52.0 °F 67% 29.98 in 10.0 mi East 11.5 mph - N/A   Clear
10:54 PM 62.1 °F 52.0 °F 70% 29.99 in 10.0 mi East 10.4 mph 19.6 mph N/A   Clear
11:54 PM 62.1 °F 52.0 °F 70% 30.00 in 10.0 mi ENE 11.5 mph 21.9 mph N/A   Clear